ONEWEB-0064, 45433

Orbit data source: Space-Track

ONEWEB-0064, 45433 is a payload satellite owned by One Web (UK) in LEO that was launched on Sat, 21 Mar 2020 UTC via a SOYUZ-2-1B launch vehicle from the Tyuratam Missile And Space Complex (TTMTR). Payloads include a variety of satellites, spacecraft, and rockets equipped with specific instruments for various scientific and technological missions. These include communications satellites like Starlink; space stations such as the ISS; scientific satellites like the Hubble; Earth observation satellites from companies like Planet Labs, Umbra, and HawkEye 360; GPS; miniature CubeSats for education and research; and military/defense satellites.

Loading next visibility...
ONEWEB-0064 details
Identifier
45433, 2020-020K
Orbit
LEO
Last TLE update14 hours ago
Origin
Flag of UKOne Web (UK)
ManufacturerOne Web
MissionOperational Commercial Communications
Bus & MotorARROW, Unknown motor
Mass148 kg wet, ~140 kg dry
Launch date (UTC)
2020-03-21 (5 years ago)
Launch vehicle
SOYUZ-2-1B
Launch site
Tyuratam Missile And Space Complex (TTMTR)
Object type
Payload
Rocket body
Debris
Shape & HBRTrap Box + 2 Pan, 5 m
Radar Cross Section2.957 m², Large (>1 m²)

Expand to show TLE details & history

TLE from 14 hours ago
0 ONEWEB-0064
1 45433U 20020K   24336.72590756  .00000281  00000-0  75732-3 0  9990
2 45433  87.8890 133.1461 0001299  97.8750 262.2525 13.11419221228963
Epoch: 2024-12-01T17:25Z
Definitive object data (Epoch: 2024-12-01T17:25:18.413Z)
Latitude-0.00005°
Longitude160.75939°
Altitude1,220.696 km
Speed7.244 km/s
True Right ascension08h 52m 35s
True Declination0° 00' 00"
Sunlit
Object was in daylight at TLE epoch
Visualization TLE readout
Latitude-55.94004°
Longitude-16.24689°
Altitude1,240.165 km
Speed7.234 km/s
Apparent Right ascension18h 59m 49s
Apparent Declination-52° 13' 40"
Sunlit
Object is in daylight
Visualization observer readout
Local Sidereal Time05:12:21
Azimuth227.274° WSW
Elevation-67.866°
Doppler factor1
Orbital elements
Apogee altitude1,215.778 km
Perigee altitude1,213.806 km
Semi-major axis7,592.929 km
Eccentricity0.0001299
Inclination87.889°
RAAN133.1461°
Arg. of periapsis97.875°
True anomaly262.23775°
Mean anomaly262.2525°
Eccentric anomaly262.24513°
Mean motion3.28042 °/min
BSTAR0.00075732
Orbital period109.74 mins
Loading maneuver chart data...
Loading historical data...
Loading historical data...
Loading historical data...
Loading historical data...
Loading historical data...
Loading historical data...
Loading historical data...

ONEWEB-0064 Visibility forecast

Observer location: undefined°, undefined

Span
Click to sort rows by Start time (UTC) header in descending order
Start Az.
Max El. time (UTC)
Max El. Az.
Max El.
End time (UTC)
End Az.
11 mins2024-12-02 10:01:17.497Z133.614° SE2024-12-02 10:06:17.497Z84.313° E27.749°2024-12-02 10:12:17.497Z22.713° NE
11 mins2024-12-02 11:51:17.497Z212.508° SW2024-12-02 11:56:17.497Z277.027° WNW35.57°2024-12-02 12:02:17.497Z345.264° N
10 mins2024-12-02 21:31:17.497Z33.915° NE2024-12-02 21:35:17.497Z74.582° E23.198°2024-12-02 21:41:17.497Z130.31° SE
12 mins2024-12-02 23:20:17.497Z347.363° N2024-12-02 23:25:17.497Z291.217° WNW39.687°2024-12-02 23:32:17.497Z200.666° SSW
|